| time (UTC) | temp F | wind direction | speed MPH | gust MPH | rain 1hr in | rain 24hr in | rain mn in | humidity % | barometer mb |
| 20260510221011 | 71 | 231 | 7.0 | 11.0 | 0.00 | 0.00 | 0.00 | 33 | 1016.3 |
| 20260510220511 | 71 | 183 | 5.0 | 15.0 | 0.00 | 0.00 | 0.00 | 33 | 1016.2 |
| 20260510220010 | 72 | 188 | 7.0 | 12.0 | 0.00 | 0.00 | 0.00 | 32 | 1016.3 |
| 20260510215509 | 72 | 136 | 4.0 | 8.0 | 0.00 | 0.00 | 0.00 | 32 | 1016.4 |
| 20260510215008 | 73 | 132 | 3.0 | 9.0 | 0.00 | 0.00 | 0.00 | 32 | 1016.5 |
| 20260510214507 | 72 | 142 | 5.0 | 9.0 | 0.00 | 0.00 | 0.00 | 32 | 1016.6 |
| 20260510214007 | 71 | 252 | 2.0 | 4.0 | 0.00 | 0.00 | 0.00 | 32 | 1016.6 |
| 20260510213508 | 72 | 307 | 1.0 | 8.0 | 0.00 | 0.00 | 0.00 | 32 | 1016.9 |
| 20260510213007 | 72 | 347 | 3.0 | 8.0 | 0.00 | 0.00 | 0.00 | 32 | 1016.9 |
| 20260510212506 | 71 | 325 | 2.0 | 5.0 | 0.00 | 0.00 | 0.00 | 33 | 1016.9 |
| 20260510212007 | 70 | 321 | 3.0 | 8.0 | 0.00 | 0.00 | 0.00 | 33 | 1017.0 |
| 20260510211008 | 71 | 74 | 2.0 | 8.0 | 0.00 | 0.00 | 0.00 | 33 | 1017.2 |
| 20260510210505 | 71 | 29 | 3.0 | 9.0 | 0.00 | 0.00 | 0.00 | 33 | 1017.2 |
| 20260510210004 | 72 | 124 | 2.0 | 5.0 | 0.00 | 0.00 | 0.00 | 31 | 1017.1 |
| 20260510205504 | 71 | 105 | 1.0 | 9.0 | 0.00 | 0.00 | 0.00 | 32 | 1017.4 |
| 20260510205003 | 70 | 90 | 4.0 | 9.0 | 0.00 | 0.00 | 0.00 | 32 | 1017.4 |
| 20260510204503 | 70 | 103 | 2.0 | 8.0 | 0.00 | 0.00 | 0.00 | 31 | 1017.3 |
| 20260510204002 | 70 | 44 | 2.0 | 9.0 | 0.00 | 0.00 | 0.00 | 31 | 1017.5 |
| 20260510203502 | 71 | 101 | 2.0 | 10.0 | 0.00 | 0.00 | 0.00 | 31 | 1017.6 |
| 20260510203002 | 70 | 67 | 6.0 | 10.0 | 0.00 | 0.00 | 0.00 | 31 | 1017.7 |
| 20260510202502 | 71 | 101 | 1.0 | 10.0 | 0.00 | 0.00 | 0.00 | 31 | 1017.6 |
| 20260510202002 | 71 | 53 | 2.0 | 10.0 | 0.00 | 0.00 | 0.00 | 31 | 1017.7 |
| 20260510201100 | 70 | 152 | 3.0 | 9.0 | 0.00 | 0.00 | 0.00 | 31 | 1017.7 |
| 20260510200559 | 69 | 344 | 3.0 | 11.0 | 0.00 | 0.00 | 0.00 | 31 | 1017.8 |
| 20260510200100 | 69 | 244 | 5.0 | 11.0 | 0.00 | 0.00 | 0.00 | 32 | 1017.9 |
| 20260510195559 | 69 | 199 | 6.0 | 10.0 | 0.00 | 0.00 | 0.00 | 31 | 1017.9 |
| 20260510195058 | 69 | 211 | 3.0 | 7.0 | 0.00 | 0.00 | 0.00 | 31 | 1017.9 |
| 20260510194618 | 69 | 307 | 2.0 | 6.0 | 0.00 | 0.00 | 0.00 | 31 | 1018.1 |
| 20260510194057 | 69 | 272 | 2.0 | 6.0 | 0.00 | 0.00 | 0.00 | 32 | 1018.1 |
| 20260510193600 | 68 | 128 | 1.0 | 10.0 | 0.00 | 0.00 | 0.00 | 33 | 1018.2 |
| 20260510193057 | 69 | 169 | 3.0 | 10.0 | 0.00 | 0.00 | 0.00 | 32 | 1018.1 |
| 20260510192555 | 68 | 101 | 2.0 | 10.0 | 0.00 | 0.00 | 0.00 | 31 | 1018.2 |
| 20260510192053 | 68 | 222 | 3.0 | 7.0 | 0.00 | 0.00 | 0.00 | 31 | 1018.4 |
| 20260510191051 | 68 | 226 | 3.0 | 9.0 | 0.00 | 0.00 | 0.00 | 31 | 1018.5 |
| 20260510190552 | 67 | 185 | 5.0 | 10.0 | 0.00 | 0.00 | 0.00 | 31 | 1018.6 |
| 20260510190100 | 67 | 178 | 5.0 | 10.0 | 0.00 | 0.00 | 0.00 | 31 | 1018.7 |
| 20260510185548 | 67 | 152 | 6.0 | 10.0 | 0.00 | 0.00 | 0.00 | 31 | 1018.7 |
| 20260510185047 | 67 | 131 | 6.0 | 10.0 | 0.00 | 0.00 | 0.00 | 32 | 1018.9 |
| 20260510184550 | 67 | 211 | 7.0 | 10.0 | 0.00 | 0.00 | 0.00 | 32 | 1018.8 |
| 20260510184049 | 67 | 150 | 6.0 | 11.0 | 0.00 | 0.00 | 0.00 | 31 | 1019.0 |
| 20260510183547 | 67 | 135 | 5.0 | 11.0 | 0.00 | 0.00 | 0.00 | 30 | 1019.1 |
| 20260510183054 | 66 | 150 | 4.0 | 15.0 | 0.00 | 0.00 | 0.00 | 31 | 1019.2 |
| 20260510182544 | 66 | 144 | 7.0 | 17.0 | 0.00 | 0.00 | 0.00 | 30 | 1019.5 |
| 20260510182047 | 66 | 150 | 6.0 | 10.0 | 0.00 | 0.00 | 0.00 | 31 | 1019.2 |
| 20260510181049 | 65 | 132 | 3.0 | 12.0 | 0.00 | 0.00 | 0.00 | 31 | 1019.4 |
| 20260510180549 | 66 | 142 | 5.0 | 13.0 | 0.00 | 0.00 | 0.00 | 30 | 1019.5 |
| 20260510180053 | 65 | 176 | 6.0 | 11.0 | 0.00 | 0.00 | 0.00 | 30 | 1019.5 |
| 20260510175549 | 65 | 117 | 7.0 | 12.0 | 0.00 | 0.00 | 0.00 | 30 | 1019.6 |
| 20260510175046 | 65 | 113 | 4.0 | 10.0 | 0.00 | 0.00 | 0.00 | 30 | 1019.7 |
| 20260510174553 | 65 | 127 | 4.0 | 10.0 | 0.00 | 0.00 | 0.00 | 30 | 1019.8 |
| 20260510174046 | 65 | 110 | 2.0 | 14.0 | 0.00 | 0.00 | 0.00 | 29 | 1020.0 |
| 20260510173544 | 65 | 111 | 3.0 | 13.0 | 0.00 | 0.00 | 0.00 | 30 | 1019.9 |
| 20260510173044 | 65 | 152 | 8.0 | 13.0 | 0.00 | 0.00 | 0.00 | 28 | 1019.9 |
| 20260510172546 | 64 | 127 | 7.0 | 12.0 | 0.00 | 0.00 | 0.00 | 29 | 1020.1 |
| 20260510172043 | 64 | 99 | 3.0 | 10.0 | 0.00 | 0.00 | 0.00 | 30 | 1020.1 |
| 20260510171043 | 63 | 131 | 8.0 | 14.0 | 0.00 | 0.00 | 0.00 | 29 | 1020.4 |
| 20260510170541 | 63 | 196 | 2.0 | 9.0 | 0.00 | 0.00 | 0.00 | 29 | 1020.4 |
| 20260510170044 | 63 | 134 | 4.0 | 10.0 | 0.00 | 0.00 | 0.00 | 29 | 1020.3 |
| 20260510165541 | 63 | 182 | 4.0 | 10.0 | 0.00 | 0.00 | 0.00 | 30 | 1020.4 |
| 20260510165040 | 63 | 188 | 3.0 | 8.0 | 0.00 | 0.00 | 0.00 | 30 | 1020.3 |
| 20260510164538 | 63 | 193 | 4.0 | 8.0 | 0.00 | 0.00 | 0.00 | 30 | 1020.4 |
| 20260510164036 | 63 | 134 | 3.0 | 8.0 | 0.00 | 0.00 | 0.00 | 30 | 1020.3 |
| 20260510163536 | 62 | 120 | 4.0 | 8.0 | 0.00 | 0.00 | 0.00 | 30 | 1020.4 |
| 20260510163035 | 62 | 119 | 2.0 | 7.0 | 0.00 | 0.00 | 0.00 | 30 | 1020.5 |
| 20260510162533 | 61 | 101 | 4.0 | 11.0 | 0.00 | 0.00 | 0.00 | 32 | 1020.4 |
| 20260510162034 | 61 | 184 | 6.0 | 12.0 | 0.00 | 0.00 | 0.00 | 32 | 1020.6 |
| 20260510161032 | 60 | 126 | 3.0 | 10.0 | 0.00 | 0.00 | 0.00 | 32 | 1020.8 |
| 20260510160531 | 60 | 132 | 5.0 | 10.0 | 0.00 | 0.00 | 0.00 | 33 | 1020.7 |
| 20260510160030 | 60 | 136 | 2.0 | 9.0 | 0.00 | 0.00 | 0.00 | 32 | 1020.8 |
| 20260510155529 | 59 | 158 | 3.0 | 9.0 | 0.00 | 0.00 | 0.00 | 35 | 1020.8 |
| 20260510155028 | 59 | 147 | 4.0 | 11.0 | 0.00 | 0.00 | 0.00 | 35 | 1020.9 |
| 20260510154527 | 58 | 158 | 2.0 | 9.0 | 0.00 | 0.00 | 0.00 | 36 | 1020.8 |
| 20260510154026 | 58 | 155 | 4.0 | 9.0 | 0.00 | 0.00 | 0.00 | 36 | 1021.0 |
| 20260510153525 | 58 | 132 | 4.0 | 10.0 | 0.00 | 0.00 | 0.00 | 37 | 1021.0 |
| 20260510153024 | 57 | 123 | 6.0 | 10.0 | 0.00 | 0.00 | 0.00 | 37 | 1021.0 |
| 20260510152524 | 57 | 198 | 4.0 | 9.0 | 0.00 | 0.00 | 0.00 | 37 | 1020.9 |
| 20260510152020 | 57 | 126 | 4.0 | 10.0 | 0.00 | 0.00 | 0.00 | 38 | 1020.9 |
| 20260510151028 | 56 | 131 | 5.0 | 10.0 | 0.00 | 0.00 | 0.00 | 39 | 1021.1 |
| 20260510150525 | 55 | 175 | 2.0 | 9.0 | 0.00 | 0.00 | 0.00 | 40 | 1021.2 |
| 20260510150026 | 55 | 138 | 4.0 | 9.0 | 0.00 | 0.00 | 0.00 | 39 | 1021.1 |
| 20260510145523 | 54 | 150 | 3.0 | 10.0 | 0.00 | 0.00 | 0.00 | 39 | 1021.1 |
| 20260510145022 | 54 | 171 | 5.0 | 10.0 | 0.00 | 0.00 | 0.00 | 40 | 1021.1 |
| 20260510144535 | 53 | 133 | 4.0 | 10.0 | 0.00 | 0.00 | 0.00 | 41 | 1021.1 |
| 20260510144020 | 53 | 193 | 4.0 | 9.0 | 0.00 | 0.00 | 0.00 | 42 | 1021.1 |
| 20260510143520 | 53 | 142 | 3.0 | 9.0 | 0.00 | 0.00 | 0.00 | 41 | 1021.3 |
| 20260510143033 | 52 | 139 | 4.0 | 9.0 | 0.00 | 0.00 | 0.00 | 42 | 1021.2 |
| 20260510142517 | 52 | 167 | 3.0 | 9.0 | 0.00 | 0.00 | 0.00 | 42 | 1021.2 |
| 20260510142017 | 52 | 162 | 5.0 | 9.0 | 0.00 | 0.00 | 0.00 | 42 | 1021.2 |
| 20260510141009 | 51 | 148 | 4.0 | 8.0 | 0.00 | 0.00 | 0.00 | 42 | 1021.3 |
| 20260510140510 | 51 | 140 | 3.0 | 7.0 | 0.00 | 0.00 | 0.00 | 44 | 1021.3 |
| 20260510140007 | 50 | 171 | 3.0 | 7.0 | 0.00 | 0.00 | 0.00 | 44 | 1021.4 |
| 20260510135509 | 50 | 132 | 2.0 | 4.0 | 0.00 | 0.00 | 0.00 | 46 | 1021.3 |
| 20260510135005 | 49 | 148 | 2.0 | 5.0 | 0.00 | 0.00 | 0.00 | 46 | 1021.2 |
| 20260510134505 | 49 | 149 | 1.0 | 5.0 | 0.00 | 0.00 | 0.00 | 47 | 1021.3 |
| 20260510134005 | 48 | 145 | 2.0 | 5.0 | 0.00 | 0.00 | 0.00 | 47 | 1021.3 |
| 20260510133504 | 48 | 146 | 3.0 | 4.0 | 0.00 | 0.00 | 0.00 | 46 | 1021.3 |
| 20260510133004 | 48 | 146 | 1.0 | 3.0 | 0.00 | 0.00 | 0.00 | 47 | 1021.2 |
| 20260510132504 | 48 | 146 | 1.0 | 5.0 | 0.00 | 0.00 | 0.00 | 48 | 1021.1 |
| 20260510132004 | 48 | 182 | 2.0 | 5.0 | 0.00 | 0.00 | 0.00 | 47 | 1021.1 |
| 20260510131003 | 48 | 138 | 3.0 | 5.0 | 0.00 | 0.00 | 0.00 | 46 | 1021.0 |
| 20260510130502 | 47 | 132 | 3.0 | 4.0 | 0.00 | 0.00 | 0.00 | 46 | 1021.0 |
| 20260510130003 | 47 | 132 | 2.0 | 4.0 | 0.00 | 0.00 | 0.00 | 47 | 1021.0 |
| 20260510125501 | 47 | 132 | 2.0 | 5.0 | 0.00 | 0.00 | 0.00 | 47 | 1020.9 |
| 20260510125002 | 47 | 132 | 2.0 | 7.0 | 0.00 | 0.00 | 0.00 | 48 | 1021.0 |
| 20260510124504 | 47 | 132 | 3.0 | 7.0 | 0.00 | 0.00 | 0.00 | 47 | 1021.0 |
| 20260510124002 | 47 | 130 | 2.0 | 5.0 | 0.00 | 0.00 | 0.00 | 48 | 1021.0 |
| 20260510123503 | 47 | 130 | 2.0 | 5.0 | 0.00 | 0.00 | 0.00 | 48 | 1021.1 |
| 20260510123101 | 47 | 134 | 3.0 | 8.0 | 0.00 | 0.00 | 0.00 | 48 | 1021.0 |
| 20260510122604 | 46 | 128 | 4.0 | 8.0 | 0.00 | 0.00 | 0.00 | 49 | 1020.9 |
| 20260510122500 | 46 | 130 | 5.0 | 8.0 | 0.00 | 0.00 | 0.00 | 49 | 1021.0 |
| 20260510122100 | 46 | 128 | 2.0 | 5.0 | 0.00 | 0.00 | 0.00 | 51 | 1021.0 |
| 20260510121100 | 45 | 51 | 0.0 | 0.0 | 0.00 | 0.00 | 0.00 | 51 | 1020.9 |
| 20260510120600 | 45 | 51 | 0.0 | 0.0 | 0.00 | 0.00 | 0.00 | 51 | 1021.0 |
| 20260510120059 | 45 | 50 | 0.0 | 0.0 | 0.00 | 0.00 | 0.00 | 51 | 1021.0 |
| 20260510115558 | 45 | 50 | 0.0 | 0.0 | 0.00 | 0.00 | 0.00 | 51 | 1021.1 |
| 20260510115059 | 44 | 50 | 0.0 | 0.0 | 0.00 | 0.00 | 0.00 | 51 | 1021.0 |
| 20260510114558 | 44 | 50 | 0.0 | 3.0 | 0.00 | 0.00 | 0.00 | 50 | 1020.8 |
| 20260510114059 | 44 | 51 | 0.0 | 3.0 | 0.00 | 0.00 | 0.00 | 50 | 1020.7 |
| 20260510113559 | 43 | 29 | 0.0 | 2.0 | 0.00 | 0.00 | 0.00 | 51 | 1020.8 |
| 20260510113103 | 43 | 27 | 0.0 | 0.0 | 0.00 | 0.00 | 0.00 | 51 | 1021.0 |
| 20260510112557 | 43 | 27 | 0.0 | 0.0 | 0.00 | 0.00 | 0.00 | 50 | 1020.9 |
| 20260510112057 | 43 | 27 | 0.0 | 0.0 | 0.00 | 0.00 | 0.00 | 49 | 1021.0 |
| 20260510111059 | 43 | 27 | 0.0 | 0.0 | 0.00 | 0.00 | 0.00 | 48 | 1020.8 |
| 20260510110602 | 43 | 27 | 0.0 | 0.0 | 0.00 | 0.00 | 0.00 | 49 | 1020.8 |
| 20260510110059 | 43 | 27 | 0.0 | 0.0 | 0.00 | 0.00 | 0.00 | 49 | 1020.8 |
| 20260510105602 | 43 | 27 | 0.0 | 0.0 | 0.00 | 0.00 | 0.00 | 49 | 1020.9 |
| 20260510105059 | 43 | 27 | 0.0 | 0.0 | 0.00 | 0.00 | 0.00 | 49 | 1020.8 |
| 20260510104604 | 43 | 27 | 0.0 | 0.0 | 0.00 | 0.00 | 0.00 | 49 | 1020.8 |
| 20260510104059 | 43 | 27 | 0.0 | 0.0 | 0.00 | 0.00 | 0.00 | 49 | 1020.6 |
| 20260510103557 | 42 | 27 | 0.0 | 0.0 | 0.00 | 0.00 | 0.00 | 49 | 1020.8 |
| 20260510103057 | 42 | 27 | 0.0 | 0.0 | 0.00 | 0.00 | 0.00 | 50 | 1020.8 |
| 20260510102559 | 42 | 27 | 0.0 | 0.0 | 0.00 | 0.00 | 0.00 | 50 | 1020.8 |
| 20260510102057 | 42 | 27 | 0.0 | 0.0 | 0.00 | 0.00 | 0.00 | 51 | 1020.7 |
| 20260510101054 | 41 | 27 | 0.0 | 0.0 | 0.00 | 0.00 | 0.00 | 51 | 1020.7 |
| 20260510100559 | 41 | 27 | 0.0 | 0.0 | 0.00 | 0.00 | 0.00 | 51 | 1020.9 |
| 20260510100054 | 42 | 27 | 0.0 | 0.0 | 0.00 | 0.00 | 0.00 | 51 | 1020.8 |
| 20260510095554 | 42 | 27 | 0.0 | 0.0 | 0.00 | 0.00 | 0.00 | 50 | 1020.7 |
| 20260510095052 | 42 | 27 | 0.0 | 0.0 | 0.00 | 0.00 | 0.00 | 49 | 1020.8 |
| 20260510094602 | 42 | 27 | 0.0 | 0.0 | 0.00 | 0.00 | 0.00 | 49 | 1020.7 |
| 20260510094054 | 42 | 27 | 0.0 | 0.0 | 0.00 | 0.00 | 0.00 | 50 | 1020.6 |
| 20260510093551 | 42 | 27 | 0.0 | 0.0 | 0.00 | 0.00 | 0.00 | 50 | 1020.6 |
| 20260510093111 | 43 | 27 | 0.0 | 0.0 | 0.00 | 0.00 | 0.00 | 49 | 1020.6 |
| 20260510092548 | 43 | 27 | 0.0 | 0.0 | 0.00 | 0.00 | 0.00 | 49 | 1020.4 |
| 20260510092046 | 44 | 27 | 0.0 | 0.0 | 0.00 | 0.00 | 0.00 | 48 | 1020.4 |
| 20260510091047 | 45 | 27 | 0.0 | 0.0 | 0.00 | 0.00 | 0.00 | 48 | 1020.4 |
| 20260510090544 | 46 | 27 | 0.0 | 0.0 | 0.00 | 0.00 | 0.00 | 46 | 1020.1 |
| 20260510090043 | 46 | 27 | 0.0 | 0.0 | 0.00 | 0.00 | 0.00 | 46 | 1020.3 |
| 20260510090013 | 46 | 27 | 0.0 | 0.0 | 0.00 | 0.00 | 0.00 | 45 | 1020.3 |
| 20260510085542 | 47 | 27 | 0.0 | 0.0 | 0.00 | 0.00 | 0.00 | 45 | 1020.3 |
| 20260510085041 | 47 | 27 | 0.0 | 0.0 | 0.00 | 0.00 | 0.00 | 45 | 1020.2 |
| 20260510084541 | 47 | 27 | 0.0 | 0.0 | 0.00 | 0.00 | 0.00 | 45 | 1020.1 |
| 20260510084044 | 47 | 27 | 0.0 | 0.0 | 0.00 | 0.00 | 0.00 | 45 | 1020.0 |
| 20260510083544 | 47 | 27 | 0.0 | 0.0 | 0.00 | 0.00 | 0.00 | 44 | 1019.9 |
| 20260510083042 | 47 | 27 | 0.0 | 0.0 | 0.00 | 0.00 | 0.00 | 44 | 1020.0 |
| 20260510082539 | 47 | 27 | 0.0 | 0.0 | 0.00 | 0.00 | 0.00 | 44 | 1020.1 |
| 20260510082039 | 47 | 27 | 0.0 | 0.0 | 0.00 | 0.00 | 0.00 | 44 | 1020.1 |
| 20260510081039 | 47 | 27 | 0.0 | 0.0 | 0.00 | 0.00 | 0.00 | 46 | 1020.2 |
| 20260510080538 | 47 | 27 | 0.0 | 0.0 | 0.00 | 0.00 | 0.00 | 44 | 1020.2 |
| 20260510080038 | 47 | 27 | 0.0 | 0.0 | 0.00 | 0.00 | 0.00 | 44 | 1020.0 |
| 20260510075537 | 47 | 27 | 0.0 | 0.0 | 0.00 | 0.00 | 0.00 | 43 | 1020.0 |
| 20260510075041 | 47 | 27 | 0.0 | 0.0 | 0.00 | 0.00 | 0.00 | 43 | 1020.1 |
| 20260510074537 | 47 | 27 | 0.0 | 0.0 | 0.00 | 0.00 | 0.00 | 45 | 1020.1 |
| 20260510074037 | 47 | 27 | 0.0 | 0.0 | 0.00 | 0.00 | 0.00 | 45 | 1020.1 |
| 20260510073538 | 47 | 27 | 0.0 | 0.0 | 0.00 | 0.00 | 0.00 | 44 | 1020.2 |
| 20260510073044 | 47 | 27 | 0.0 | 2.0 | 0.00 | 0.00 | 0.00 | 45 | 1020.2 |
| 20260510072535 | 47 | 27 | 1.0 | 2.0 | 0.00 | 0.00 | 0.00 | 45 | 1020.0 |
| 20260510072034 | 47 | 27 | 0.0 | 0.0 | 0.00 | 0.00 | 0.00 | 45 | 1020.0 |
| 20260510071035 | 48 | 27 | 1.0 | 2.0 | 0.00 | 0.00 | 0.00 | 44 | 1020.0 |
| 20260510070535 | 48 | 27 | 0.0 | 1.0 | 0.00 | 0.00 | 0.00 | 43 | 1019.9 |
| 20260510070035 | 48 | 27 | 0.0 | 1.0 | 0.00 | 0.00 | 0.00 | 44 | 1019.9 |
| 20260510065534 | 48 | 27 | 0.0 | 0.0 | 0.00 | 0.00 | 0.00 | 43 | 1020.0 |
| 20260510065034 | 49 | 27 | 0.0 | 2.0 | 0.00 | 0.00 | 0.00 | 43 | 1020.0 |
| 20260510064533 | 49 | 27 | 0.0 | 3.0 | 0.00 | 0.00 | 0.00 | 43 | 1020.0 |
| 20260510064032 | 49 | 27 | 0.0 | 3.0 | 0.00 | 0.00 | 0.00 | 43 | 1020.1 |
| 20260510063530 | 49 | 27 | 1.0 | 3.0 | 0.00 | 0.00 | 0.00 | 42 | 1020.1 |
| 20260510063031 | 50 | 27 | 0.0 | 4.0 | 0.00 | 0.00 | 0.00 | 42 | 1019.9 |
| 20260510062530 | 50 | 27 | 0.0 | 2.0 | 0.00 | 0.00 | 0.00 | 42 | 1019.8 |
| 20260510062029 | 50 | 27 | 0.0 | 3.0 | 0.00 | 0.00 | 0.00 | 43 | 1019.9 |
| 20260510061026 | 49 | 20 | 0.0 | 3.0 | 0.00 | 0.00 | 0.00 | 43 | 1019.9 |
| 20260510060526 | 49 | 19 | 1.0 | 3.0 | 0.00 | 0.00 | 0.00 | 43 | 1019.8 |
| 20260510060026 | 49 | 19 | 1.0 | 3.0 | 0.00 | 0.00 | 0.00 | 44 | 1019.6 |
| 20260510055525 | 49 | 19 | 1.0 | 4.0 | 0.00 | 0.00 | 0.00 | 44 | 1019.5 |
| 20260510055026 | 49 | 19 | 2.0 | 4.0 | 0.00 | 0.00 | 0.00 | 44 | 1019.6 |
| 20260510054525 | 48 | 34 | 2.0 | 4.0 | 0.00 | 0.00 | 0.00 | 45 | 1019.5 |
| 20260510054024 | 48 | 34 | 0.0 | 2.0 | 0.00 | 0.00 | 0.00 | 47 | 1019.4 |
| 20260510053523 | 48 | 34 | 0.0 | 1.0 | 0.00 | 0.00 | 0.00 | 48 | 1019.3 |
| 20260510053044 | 48 | 34 | 0.0 | 3.0 | 0.00 | 0.00 | 0.00 | 47 | 1019.2 |
| 20260510052525 | 48 | 34 | 0.0 | 3.0 | 0.00 | 0.00 | 0.00 | 47 | 1019.1 |
| 20260510052022 | 47 | 34 | 1.0 | 3.0 | 0.00 | 0.00 | 0.00 | 47 | 1018.9 |
| 20260510051520 | 46 | 34 | 0.0 | 0.0 | 0.00 | 0.00 | 0.00 | 49 | 1018.6 |
| 20260510051021 | 46 | 34 | 0.0 | 0.0 | 0.00 | 0.00 | 0.00 | 49 | 1018.5 |
| 20260510050519 | 46 | 34 | 0.0 | 0.0 | 0.00 | 0.00 | 0.00 | 50 | 1018.6 |
| 20260510050019 | 46 | 34 | 0.0 | 0.0 | 0.00 | 0.00 | 0.00 | 50 | 1018.5 |
| 20260510045520 | 46 | 34 | 0.0 | 0.0 | 0.00 | 0.00 | 0.00 | 50 | 1018.5 |
| 20260510045020 | 46 | 34 | 0.0 | 0.0 | 0.00 | 0.00 | 0.00 | 48 | 1018.3 |
| 20260510044022 | 47 | 34 | 0.0 | 0.0 | 0.00 | 0.00 | 0.00 | 49 | 1018.3 |
| 20260510043521 | 47 | 34 | 0.0 | 0.0 | 0.00 | 0.00 | 0.00 | 49 | 1018.2 |
| 20260510043036 | 47 | 34 | 0.0 | 2.0 | 0.00 | 0.00 | 0.00 | 48 | 1018.2 |
| 20260510042521 | 47 | 34 | 0.0 | 3.0 | 0.00 | 0.00 | 0.00 | 47 | 1018.2 |
| 20260510042021 | 48 | 34 | 1.0 | 3.0 | 0.00 | 0.00 | 0.00 | 46 | 1018.1 |
| 20260510041525 | 48 | 34 | 0.0 | 2.0 | 0.00 | 0.00 | 0.00 | 47 | 1018.1 |
| 20260510041020 | 48 | 34 | 0.0 | 2.0 | 0.00 | 0.00 | 0.00 | 47 | 1018.1 |
| 20260510040519 | 48 | 34 | 0.0 | 0.0 | 0.00 | 0.00 | 0.00 | 48 | 1018.1 |
| 20260510040033 | 48 | 34 | 0.0 | 0.0 | 0.00 | 0.00 | 0.00 | 48 | 1018.1 |
| 20260510035519 | 48 | 34 | 0.0 | 0.0 | 0.00 | 0.00 | 0.00 | 48 | 1017.9 |
| 20260510035018 | 48 | 34 | 0.0 | 0.0 | 0.00 | 0.00 | 0.00 | 48 | 1017.9 |
| 20260510034017 | 48 | 34 | 0.0 | 1.0 | 0.00 | 0.00 | 0.00 | 47 | 1017.8 |
| 20260510033517 | 48 | 34 | 0.0 | 0.0 | 0.00 | 0.00 | 0.00 | 46 | 1017.7 |
| 20260510033015 | 48 | 34 | 0.0 | 2.0 | 0.00 | 0.00 | 0.00 | 47 | 1017.7 |
| 20260510032515 | 48 | 34 | 0.0 | 2.0 | 0.00 | 0.00 | 0.00 | 46 | 1017.6 |
| 20260510032018 | 49 | 34 | 1.0 | 2.0 | 0.00 | 0.00 | 0.00 | 46 | 1017.5 |
| 20260510031518 | 49 | 34 | 1.0 | 3.0 | 0.00 | 0.00 | 0.00 | 45 | 1017.5 |
| 20260510031014 | 49 | 36 | 0.0 | 3.0 | 0.00 | 0.00 | 0.00 | 45 | 1017.3 |
| 20260510030512 | 49 | 40 | 0.0 | 0.0 | 0.00 | 0.00 | 0.00 | 45 | 1017.3 |
| 20260510030012 | 50 | 40 | 0.0 | 0.0 | 0.00 | 0.00 | 0.00 | 44 | 1017.2 |
| 20260510025512 | 50 | 40 | 0.0 | 0.0 | 0.00 | 0.00 | 0.00 | 44 | 1017.2 |
| 20260510025012 | 51 | 40 | 0.0 | 0.0 | 0.00 | 0.00 | 0.00 | 44 | 1017.1 |
| 20260510024019 | 52 | 40 | 0.0 | 0.0 | 0.00 | 0.00 | 0.00 | 42 | 1017.0 |
| 20260510023511 | 52 | 40 | 0.0 | 0.0 | 0.00 | 0.00 | 0.00 | 42 | 1016.9 |
| 20260510023011 | 53 | 41 | 0.0 | 2.0 | 0.00 | 0.00 | 0.00 | 41 | 1016.8 |
| 20260510022512 | 54 | 41 | 0.0 | 2.0 | 0.00 | 0.00 | 0.00 | 40 | 1016.7 |
| 20260510022012 | 55 | 41 | 1.0 | 2.0 | 0.00 | 0.00 | 0.00 | 39 | 1016.8 |
| 20260510021522 | 56 | 41 | 1.0 | 3.0 | 0.00 | 0.00 | 0.00 | 38 | 1016.6 |
| 20260510021010 | 56 | 41 | 1.0 | 8.0 | 0.00 | 0.00 | 0.00 | 38 | 1016.6 |
| 20260510020509 | 57 | 46 | 3.0 | 9.0 | 0.00 | 0.00 | 0.00 | 38 | 1016.5 |
| 20260510020009 | 58 | 360 | 2.0 | 4.0 | 0.00 | 0.00 | 0.00 | 38 | 1016.5 |
| 20260510015509 | 59 | 360 | 0.0 | 2.0 | 0.00 | 0.00 | 0.00 | 38 | 1016.3 |
| 20260510015008 | 60 | 360 | 0.0 | 3.0 | 0.00 | 0.00 | 0.00 | 37 | 1016.2 |
| 20260510014009 | 61 | 360 | 2.0 | 4.0 | 0.00 | 0.00 | 0.00 | 36 | 1015.9 |
| 20260510013511 | 61 | 360 | 2.0 | 4.0 | 0.00 | 0.00 | 0.00 | 36 | 1016.1 |
| 20260510013010 | 61 | 17 | 2.0 | 4.0 | 0.00 | 0.00 | 0.00 | 36 | 1016.0 |
| 20260510012508 | 62 | 326 | 1.0 | 4.0 | 0.00 | 0.00 | 0.00 | 36 | 1015.9 |
| 20260510012008 | 62 | 308 | 1.0 | 4.0 | 0.00 | 0.00 | 0.00 | 36 | 1015.9 |
| 20260510011508 | 62 | 305 | 2.0 | 8.0 | 0.00 | 0.00 | 0.00 | 36 | 1016.1 |
| 20260510011007 | 63 | 308 | 3.0 | 8.0 | 0.00 | 0.00 | 0.00 | 35 | 1015.8 |
| 20260510010507 | 63 | 311 | 3.0 | 9.0 | 0.00 | 0.00 | 0.00 | 34 | 1016.0 |
| 20260510010008 | 64 | 315 | 2.0 | 9.0 | 0.00 | 0.00 | 0.00 | 34 | 1015.8 |
| 20260510005509 | 64 | 318 | 1.0 | 6.0 | 0.00 | 0.00 | 0.00 | 34 | 1015.8 |
| 20260510005008 | 65 | 355 | 2.0 | 9.0 | 0.00 | 0.00 | 0.00 | 33 | 1015.9 |
| 20260510004007 | 65 | 308 | 4.0 | 11.0 | 0.00 | 0.00 | 0.00 | 33 | 1015.7 |
| 20260510003506 | 65 | 333 | 5.0 | 9.0 | 0.00 | 0.00 | 0.00 | 32 | 1015.6 |
| 20260510003006 | 66 | 305 | 3.0 | 8.0 | 0.00 | 0.00 | 0.00 | 33 | 1015.7 |
| 20260510002506 | 65 | 325 | 3.0 | 9.0 | 0.00 | 0.00 | 0.00 | 33 | 1015.5 |
| 20260510002008 | 65 | 331 | 4.0 | 9.0 | 0.00 | 0.00 | 0.00 | 34 | 1015.5 |
| 20260510001508 | 65 | 283 | 3.0 | 8.0 | 0.00 | 0.00 | 0.00 | 34 | 1015.5 |
| 20260510001005 | 64 | 301 | 2.0 | 8.0 | 0.00 | 0.00 | 0.00 | 34 | 1015.4 |
| 20260510000505 | 64 | 315 | 2.0 | 9.0 | 0.00 | 0.00 | 0.00 | 33 | 1015.5 |
| 20260510000005 | 65 | 318 | 4.0 | 9.0 | 0.00 | 0.00 | 0.00 | 33 | 1015.6 |
| 20260509235505 | 65 | 317 | 4.0 | 11.0 | 0.00 | 0.00 | 0.00 | 33 | 1015.4 |
| 20260509235005 | 66 | 322 | 7.0 | 13.0 | 0.00 | 0.00 | 0.00 | 32 | 1015.4 |
| 20260509234002 | 66 | 298 | 6.0 | 12.0 | 0.00 | 0.00 | 0.00 | 32 | 1015.3 |
| 20260509233501 | 66 | 268 | 4.0 | 10.0 | 0.00 | 0.00 | 0.00 | 32 | 1015.3 |
| 20260509233001 | 66 | 273 | 5.0 | 11.0 | 0.00 | 0.00 | 0.00 | 32 | 1015.5 |
| 20260509232501 | 66 | 317 | 5.0 | 11.0 | 0.00 | 0.00 | 0.00 | 32 | 1015.3 |
| 20260509232000 | 66 | 286 | 4.0 | 10.0 | 0.00 | 0.00 | 0.00 | 33 | 1015.3 |
| 20260509231502 | 65 | 12 | 2.0 | 9.0 | 0.00 | 0.00 | 0.00 | 33 | 1015.4 |
| 20260509231100 | 65 | 327 | 4.0 | 9.0 | 0.00 | 0.00 | 0.00 | 33 | 1015.4 |
| 20260509230603 | 65 | 317 | 3.0 | 9.0 | 0.00 | 0.00 | 0.00 | 33 | 1015.4 |
| 20260509230100 | 66 | 19 | 4.0 | 11.0 | 0.00 | 0.00 | 0.00 | 33 | 1015.5 |
| 20260509225602 | 66 | 338 | 3.0 | 11.0 | 0.00 | 0.00 | 0.00 | 33 | 1015.3 |
| 20260509225059 | 65 | 346 | 6.0 | 11.0 | 0.00 | 0.00 | 0.00 | 34 | 1015.2 |
| 20260509224100 | 65 | 360 | 4.0 | 10.0 | 0.00 | 0.00 | 0.00 | 33 | 1015.4 |
| 20260509223603 | 65 | 9 | 3.0 | 11.0 | 0.00 | 0.00 | 0.00 | 33 | 1015.4 |
| 20260509223103 | 66 | 303 | 5.0 | 11.0 | 0.00 | 0.00 | 0.00 | 33 | 1015.4 |
| 20260509222605 | 66 | 5 | 5.0 | 10.0 | 0.00 | 0.00 | 0.00 | 32 | 1015.3 |
| 20260509222059 | 66 | 19 | 5.0 | 10.0 | 0.00 | 0.00 | 0.00 | 32 | 1015.3 |
| 20260509221600 | 66 | 300 | 2.0 | 9.0 | 0.00 | 0.00 | 0.00 | 32 | 1015.3 |